Flag for France Weather past 2 weeks in Nantes, France

Now
59 °F

Passing clouds.


Feels Like: 57 °F
Forecast: 49 / 69 °F
Wind: 9 mph from North

Location: Nantes Airport

Current Time: May 26, 2015 at 12:07:20 AM

Latest Report: May 25, 2015 at 11:30 PM


Visibility: N/A

Pressure: 30.15 "Hg

Humidity: 63%

Dew point: 46 °F

Location of NantesLocation

Historic Weather in Nantes — Graph

°F

Nantes temperature yesterday

Maximum temperature yesterday: 70 °F (at 5:30 PM)
Minimum temperature yesterday: 55 °F (at 3:00 AM)
Average temperature yesterday: 62 °F

Past Weeks' High & Low Weather Summary

 TemperatureHumidityPressure
High79 °F (May 11, 3:30 PM)100% (May 11, 7:00 AM)30.45 "Hg (May 11, 7:00 AM)
Low39 °F (May 21, 4:00 AM)44% (May 11, 7:00 PM)29.89 "Hg (May 14, 9:30 AM)
Average57 °F76%30.16 "Hg
* Reported May 10 10:00 PM — May 25 10:30 PM, Nantes, Weather by CustomWeather, © 2015

Note: Actual official high and low records may vary slightly from our data, if they occured in-between our weather recording intervals... More about our weather records

Advertising

Nantes weather history for previous 24 hours

 ConditionsComfort  
Time TempWeatherWind HumidityBarometerVisibility
10:30 PM
Mon, May 25
61 °FPassing clouds.6 mph59%30.12 "HgN/A
10:00 PM63 °FPassing clouds.9 mph56%30.12 "HgN/A
9:30 PM63 °FPassing clouds.6 mph59%30.12 "HgN/A
9:00 PM64 °FPartly sunny.6 mph56%30.09 "HgN/A
8:30 PM66 °FPartly sunny.9 mph52%30.09 "HgN/A
8:00 PM66 °FPartly sunny.8 mph56%30.09 "HgN/A
7:30 PM68 °FScattered clouds.10 mph49%30.09 "HgN/A
7:00 PM70 °FPassing clouds.9 mph50%30.09 "HgN/A
6:30 PM70 °FPassing clouds.12 mph46%30.09 "HgN/A
6:00 PM70 °FPassing clouds.10 mph50%30.09 "HgN/A
5:30 PM70 °FPassing clouds.12 mph46%30.09 "HgN/A
5:00 PM68 °FScattered clouds.8 mph53%30.09 "HgN/A
4:30 PM68 °FScattered clouds.8 mph49%30.09 "HgN/A
4:00 PM68 °FPassing clouds.10 mph53%30.09 "HgN/A
3:30 PM68 °FPassing clouds.7 mph53%30.12 "HgN/A
3:00 PM66 °FPassing clouds.7 mph52%30.12 "HgN/A
2:30 PM66 °FPassing clouds.9 mph60%30.12 "HgN/A
2:00 PM64 °FScattered clouds.7 mph64%30.12 "HgN/A
1:30 PM63 °FScattered clouds.8 mph73%30.15 "HgN/A
1:00 PM63 °FPartly sunny.7 mph73%30.15 "HgN/A
12:30 PM63 °FBroken clouds.9 mph73%30.15 "HgN/A
12:00 PM61 °FPartly sunny.7 mph77%30.15 "HgN/A
11:30 AM61 °FPartly sunny.6 mph77%30.15 "HgN/A
11:00 AM61 °FPartly sunny.6 mph83%30.15 "HgN/A
10:30 AM59 °FPartly sunny.7 mph82%30.15 "HgN/A
10:00 AM59 °FDrizzle. Partly sunny.6 mph82%30.15 "HgN/A
9:30 AM59 °FPartly sunny.6 mph82%30.15 "HgN/A
9:00 AM59 °FPartly sunny.5 mph82%30.15 "HgN/A
8:30 AM59 °FBroken clouds.5 mph82%30.15 "HgN/A
8:00 AM59 °FBroken clouds.5 mph82%30.12 "HgN/A
7:30 AM57 °FBroken clouds.3 mph88%30.15 "HgN/A
7:00 AM57 °FPartly cloudy.3 mph88%30.12 "HgN/A
6:30 AM57 °FPassing clouds.3 mph88%30.12 "HgN/A
6:00 AM57 °FPassing clouds.5 mph82%30.12 "HgN/A
5:30 AM57 °FPassing clouds.3 mph82%30.12 "HgN/A
5:00 AM57 °FPassing clouds.2 mph82%30.12 "HgN/A
4:30 AM57 °FMostly cloudy.2 mph82%30.12 "HgN/A
4:00 AM57 °FMostly cloudy.2 mph82%30.12 "HgN/A
3:30 AM57 °FClear.2 mph82%30.12 "Hg10 mi
3:00 AM55 °FClear.2 mph88%30.12 "Hg10 mi
2:30 AM57 °FClear.2 mph82%30.12 "Hg10 mi
2:00 AM57 °FClear.3 mph82%30.15 "Hg10 mi
1:30 AM57 °FPassing clouds.5 mph82%30.15 "HgN/A
1:00 AM57 °FPassing clouds.5 mph88%30.12 "HgN/A
12:30 AM57 °FPassing clouds.3 mph88%30.12 "HgN/A
12:00 AM59 °FClear.3 mph82%30.12 "Hg10 mi
Weather by CustomWeather, © 2015

See weather overviewHow to use our weather pages